Flag for India Weather past 2 weeks in Kãnpur, Uttar Pradesh, India

Now
95 °F

Scattered clouds.


Feels Like: 113 °F
Forecast: 83 / 100 °F
Wind: 6 mph from West

Location: Lucknow / Amausi

Current Time: Jul 2, 2015 at 1:48:49 PM

Latest Report: Jul 2, 2015 at 1:00 PM


Visibility: 3 mi

Pressure: 29.59 "Hg

Humidity: 60%

Dew point: 79 °F

Location of KãnpurLocation

Historic Weather in Kãnpur — Graph

°F

Kãnpur temperature yesterday

Maximum temperature yesterday: 91 °F (at 1:30 PM)
Minimum temperature yesterday: 79 °F (at 3:00 AM)
Average temperature yesterday: 85 °F

Past Weeks' High & Low Weather Summary

 TemperatureHumidityPressure
High108 °F (Jun 20, 3:00 PM)100% (Jun 29, 11:30 AM)29.65 "Hg (Jun 29, 11:30 AM)
Low75 °F (Jun 29, 8:00 PM)30% (Jun 18, 5:00 PM)29.27 "Hg (Jun 25, 4:30 PM)
Average92 °F65%29.48 "Hg
* Reported Jun 17 12:30 PM — Jul 2 12:30 PM, Kãnpur, Weather by CustomWeather, © 2015

Note: Actual official high and low records may vary slightly from our data, if they occured in-between our weather recording intervals... More about our weather records

Advertising

Kãnpur weather history for previous 24 hours

 ConditionsComfort  
Time TempWeatherWind HumidityBarometerVisibility
12:30 PM
Thu, Jul 2
93 °FScattered clouds.6 mph63%29.62 "Hg3 mi
12:00 PM93 °FScattered clouds.5 mph63%29.62 "Hg3 mi
11:30 AM93 °FScattered clouds.6 mph63%29.62 "Hg3 mi
10:30 AM91 °FScattered clouds.5 mph67%29.65 "Hg3 mi
10:00 AM91 °FScattered clouds.5 mph67%29.65 "Hg3 mi
9:30 AM90 °FScattered clouds.6 mph71%29.65 "Hg2 mi
9:00 AM90 °FScattered clouds.5 mph71%29.65 "Hg2 mi
8:30 AM88 °FFog.3 mph75%29.65 "Hg2 mi
8:00 AM84 °FFog.No wind84%29.65 "Hg2 mi
7:30 AM84 °FFog.2 mph84%29.62 "Hg1 mi
7:00 AM82 °FFog.2 mph89%29.62 "Hg1 mi
6:30 AM82 °FScattered clouds.2 mph89%29.62 "Hg1 mi
6:00 AM82 °FScattered clouds.2 mph89%29.62 "Hg1 mi
5:30 AM82 °FPassing clouds.2 mph89%29.59 "Hg1 mi
4:00 AM82 °FPassing clouds.2 mph89%29.62 "Hg2 mi
3:00 AM82 °FPassing clouds.2 mph89%29.59 "Hg2 mi
2:00 AM82 °FPassing clouds.2 mph89%29.59 "Hg2 mi
1:00 AM84 °FPassing clouds.2 mph84%29.59 "Hg2 mi
12:00 AM84 °FPassing clouds.2 mph84%29.65 "Hg2 mi
11:00 PM
Wed, Jul 1
86 °FPassing clouds.2 mph84%29.65 "Hg2 mi
10:00 PM88 °FPassing clouds.2 mph79%29.62 "Hg2 mi
9:00 PM88 °FHaze.No wind79%29.59 "Hg3 mi
8:30 PM88 °FPassing clouds.No wind79%29.59 "Hg3 mi
8:00 PM90 °FPassing clouds.2 mph67%29.59 "Hg3 mi
7:30 PM90 °FScattered clouds.2 mph67%29.59 "Hg3 mi
7:00 PM90 °FScattered clouds.3 mph67%29.56 "Hg3 mi
6:30 PM90 °FPassing clouds.3 mph67%29.56 "Hg4 mi
6:00 PM90 °FPassing clouds.5 mph67%29.53 "Hg4 mi
5:30 PM90 °FScattered clouds.6 mph67%29.53 "Hg4 mi
5:00 PM90 °FPassing clouds.6 mph67%29.53 "Hg4 mi
4:00 PM91 °FScattered clouds.7 mph63%29.53 "Hg4 mi
3:30 PM91 °FScattered clouds.9 mph63%29.53 "Hg4 mi
3:00 PM91 °FScattered clouds.12 mph63%29.59 "Hg4 mi
2:30 PM91 °FScattered clouds.12 mph59%29.59 "Hg4 mi
2:00 PM91 °FScattered clouds.12 mph59%29.59 "Hg4 mi
1:30 PM91 °FScattered clouds.12 mph59%29.62 "Hg4 mi
1:00 PM90 °FBroken clouds.9 mph63%29.62 "Hg3 mi
Weather by CustomWeather, © 2015

See weather overviewHow to use our weather pages